"Period start","avg(HW err(1)/warn(2) (#))","avg(Visibility (m))","avg(Weather code (#))","avg(Precip intensity (mm/h))","min(HW err(1)/warn(2) (#))","max(HW err(1)/warn(2) (#))","std(HW err(1)/warn(2) (#))","med(HW err(1)/warn(2) (#))","min(Visibility (m))","max(Visibility (m))","std(Visibility (m))","med(Visibility (m))","min(Weather code (#))","max(Weather code (#))","std(Weather code (#))","med(Weather code (#))","min(Precip intensity (mm/h))","max(Precip intensity (mm/h))","std(Precip intensity (mm/h))","med(Precip intensity (mm/h))"
2016-12-17 00:00:00,2,8024,55,0.00,2,2,0,2,7239,8719,530,7795,10,77,30,71,0.00,0.00,0.00,0.00
2016-12-17 00:10:00,2,6830,16,0.00,2,2,0,2,5869,7383,490,6956,10,71,18,10,0.00,0.00,0.00,0.00
2016-12-17 00:20:00,2,6619,74,0.01,2,2,0,2,5967,7601,462,6672,71,77,3,74,0.00,0.05,0.02,0.00
2016-12-17 00:30:00,2,5930,36,0.00,2,2,0,2,5285,6291,329,6054,10,77,31,10,0.00,0.00,0.00,0.00
2016-12-17 00:40:00,2,7501,10,0.00,2,2,0,2,4642,9775,1364,7547,10,10,0,10,0.00,0.00,0.00,0.00
2016-12-17 00:50:00,2,6819,75,0.04,2,2,0,2,5210,7779,733,7004,71,77,3,77,0.00,0.05,0.02,0.05
2016-12-17 01:00:00,2,5294,77,0.06,2,2,0,2,4385,5934,420,5346,77,77,0,77,0.00,0.10,0.03,0.05
2016-12-17 01:10:00,2,4464,77,0.06,2,2,0,2,3419,5890,742,4426,77,77,0,77,0.00,0.10,0.03,0.05
2016-12-17 01:20:00,2,4766,77,0.09,2,2,0,2,3808,5796,647,4694,77,77,0,77,0.05,0.15,0.04,0.08
2016-12-17 01:30:00,2,5431,77,0.09,2,2,0,2,4089,7386,984,5140,77,77,0,77,0.05,0.10,0.02,0.10
2016-12-17 01:40:00,2,6198,76,0.04,2,2,0,2,4692,7846,985,6486,71,77,2,77,0.00,0.15,0.05,0.05
2016-12-17 01:50:00,2,3503,72,0.20,2,2,0,2,2245,4814,751,3634,71,77,2,71,0.05,0.35,0.09,0.20
2016-12-17 02:00:00,2,2367,71,0.45,2,2,0,2,1287,3538,623,2238,71,71,0,71,0.20,0.65,0.14,0.50
2016-12-17 02:10:00,2,3562,71,0.24,2,2,0,2,2277,4839,868,3340,71,71,0,71,0.05,0.55,0.16,0.20
2016-12-17 02:20:00,2,5055,75,0.05,2,2,0,2,4210,5781,476,5126,71,77,3,77,0.00,0.15,0.04,0.05
2016-12-17 02:30:00,2,3539,76,0.26,2,2,0,2,1576,5117,1217,3686,71,77,2,77,0.10,0.55,0.17,0.20
2016-12-17 02:40:00,2,2190,72,0.25,2,2,0,2,1411,3296,569,2190,71,77,2,71,0.15,0.40,0.09,0.23
2016-12-17 02:50:00,2,7148,74,0.03,2,2,0,2,2455,9648,2440,8254,71,77,3,74,0.00,0.10,0.04,0.00
2016-12-17 03:00:00,2,7082,75,0.03,2,2,0,2,4502,9272,1429,7304,71,77,3,77,0.00,0.05,0.03,0.03
2016-12-17 03:10:00,2,5539,76,0.02,2,2,0,2,4685,6544,540,5697,71,77,2,77,0.00,0.05,0.02,0.00
2016-12-17 03:20:00,2,7548,74,0.01,2,2,0,2,5942,8593,901,7675,71,77,3,74,0.00,0.05,0.02,0.00
2016-12-17 03:30:00,2,8542,75,0.00,2,2,0,2,7901,8965,311,8497,71,77,3,77,0.00,0.00,0.00,0.00
2016-12-17 03:40:00,2,7957,74,0.00,2,2,0,2,7077,9234,760,7665,71,77,3,74,0.00,0.00,0.00,0.00
2016-12-17 03:50:00,2,6499,29,0.00,2,2,0,2,6046,7031,314,6446,10,77,29,10,0.00,0.00,0.00,0.00
2016-12-17 04:00:00,2,6901,10,0.00,2,2,0,2,6178,8850,782,6586,10,10,0,10,0.00,0.00,0.00,0.00
2016-12-17 04:10:00,2,8056,10,0.00,2,2,0,2,6833,9044,651,7808,10,10,0,10,0.00,0.00,0.00,0.00
2016-12-17 04:20:00,2,9156,10,0.00,2,2,0,2,7801,10910,849,8902,10,10,0,10,0.00,0.00,0.00,0.00
2016-12-17 04:30:00,2,11512,8,0.00,2,2,0,2,10200,13861,1104,11314,0,10,4,10,0.00,0.00,0.00,0.00
2016-12-17 04:40:00,2,12307,40,0.00,2,2,0,2,10951,13957,1002,12113,0,71,16,41,0.00,0.00,0.00,0.00
2016-12-17 04:50:00,2,13824,38,0.00,2,2,0,2,9913,16385,2050,14190,0,77,38,36,0.00,0.00,0.00,0.00
2016-12-17 05:00:00,2,13523,0,0.00,2,2,0,2,10765,15868,1642,13891,0,0,0,0,0.00,0.00,0.00,0.00
2016-12-17 05:10:00,2,9155,0,0.00,2,2,0,2,4766,11759,1847,9430,0,0,0,0,0.00,0.00,0.00,0.00
2016-12-17 05:20:00,2,12933,59,0.00,2,2,0,2,10596,15628,1685,12359,0,77,30,71,0.00,0.00,0.00,0.00
2016-12-17 05:30:00,2,18671,73,0.00,2,2,0,2,14793,27566,3749,17288,71,77,3,71,0.00,0.00,0.00,0.00
2016-12-17 05:40:00,2,27099,15,0.00,2,2,0,2,23287,30736,2638,27319,0,77,31,0,0.00,0.00,0.00,0.00
2016-12-17 05:50:00,2,26085,0,0.00,2,2,0,2,22603,31272,2413,25879,0,0,0,0,0.00,0.00,0.00,0.00
2016-12-17 06:00:00,2,27954,0,0.00,2,2,0,2,25596,32120,1951,27612,0,0,0,0,0.00,0.00,0.00,0.00
2016-12-17 06:10:00,2,31829,0,0.00,2,2,0,2,26875,37189,3343,33108,0,0,0,0,0.00,0.00,0.00,0.00
2016-12-17 06:20:00,2,33423,0,0.00,2,2,0,2,28398,40539,3662,32788,0,0,0,0,0.00,0.00,0.00,0.00
2016-12-17 06:30:00,2,28559,0,0.00,2,2,0,2,23474,37677,4902,26136,0,0,0,0,0.00,0.00,0.00,0.00
2016-12-17 06:40:00,2,27163,0,0.00,2,2,0,2,23382,32930,3008,26290,0,0,0,0,0.00,0.00,0.00,0.00
2016-12-17 06:50:00,2,28292,0,0.00,2,2,0,2,23476,31616,2131,28503,0,0,0,0,0.00,0.00,0.00,0.00
2016-12-17 07:00:00,2,32110,0,0.00,2,2,0,2,28591,35072,1568,32406,0,0,0,0,0.00,0.00,0.00,0.00
2016-12-17 07:10:00,2,38962,0,0.00,2,2,0,2,30067,43993,4801,40436,0,0,0,0,0.00,0.00,0.00,0.00
2016-12-17 07:20:00,2,44725,0,0.00,2,2,0,2,38960,50000,3175,44888,0,0,0,0,0.00,0.00,0.00,0.00
2016-12-17 07:30:00,2,46119,0,0.00,2,2,0,2,39308,49813,3763,47211,0,0,0,0,0.00,0.00,0.00,0.00
2016-12-17 07:40:00,2,41472,0,0.00,2,2,0,2,34518,50000,4169,41067,0,0,0,0,0.00,0.00,0.00,0.00
2016-12-17 07:50:00,2,40472,0,0.00,2,2,0,2,34509,45902,3907,41395,0,0,0,0,0.00,0.00,0.00,0.00
2016-12-17 08:00:00,2,39991,0,0.00,2,2,0,2,26217,48661,6171,41084,0,0,0,0,0.00,0.00,0.00,0.00
2016-12-17 08:10:00,2,34004,22,0.00,2,2,0,2,18125,43918,6361,34612,0,78,34,0,0.00,0.00,0.00,0.00
2016-12-17 08:20:00,2,24880,69,0.00,2,2,0,2,16909,34583,6005,24640,0,78,23,78,0.00,0.00,0.00,0.00
2016-12-17 08:30:00,2,15837,78,0.02,2,2,0,2,9720,24491,4607,14875,77,78,0,78,0.00,0.05,0.02,0.00
2016-12-17 08:40:00,2,6364,77,0.07,2,2,0,2,3639,9813,1932,6070,77,77,0,77,0.00,0.10,0.03,0.05
2016-12-17 08:50:00,2,3253,77,0.19,2,2,0,2,1779,5245,1014,3380,77,77,0,77,0.05,0.30,0.07,0.20
2016-12-17 09:00:00,2,1587,77,0.39,2,2,0,2,956,2491,506,1360,77,77,0,77,0.20,0.95,0.21,0.30
2016-12-17 09:10:00,2,1488,74,0.38,2,2,0,2,883,2156,484,1344,71,77,3,74,0.10,0.75,0.18,0.40
2016-12-17 09:20:00,2,1068,71,0.76,2,2,0,2,690,1365,205,1070,71,71,0,71,0.30,1.20,0.31,0.73
2016-12-17 09:30:00,2,659,72,1.28,2,2,0,2,541,732,60,672,71,72,0,72,0.95,1.70,0.27,1.25
2016-12-17 09:40:00,2,1086,71,1.13,2,2,0,2,766,1594,220,1104,71,72,0,71,0.45,2.00,0.47,0.97
2016-12-17 09:50:00,2,1981,71,0.52,2,2,0,2,1377,2842,410,2067,71,71,0,71,0.15,1.00,0.29,0.40
2016-12-17 10:00:00,2,9286,72,0.17,2,2,0,2,1049,20175,7030,8013,71,77,2,71,0.00,0.65,0.23,0.03
2016-12-17 10:10:00,2,20064,0,0.00,2,2,0,2,13865,25899,3234,20065,0,0,0,0,0.00,0.00,0.00,0.00
2016-12-17 10:20:00,2,13974,0,0.00,2,2,0,2,3124,18728,4389,14898,0,0,0,0,0.00,0.00,0.00,0.00
2016-12-17 10:30:00,2,5411,41,0.01,2,2,0,2,1754,10524,3043,4600,0,78,35,40,0.00,0.10,0.03,0.00
2016-12-17 10:40:00,2,4997,17,0.00,2,2,0,2,2746,7339,1383,4838,10,78,20,10,0.00,0.00,0.00,0.00
2016-12-17 10:50:00,2,9001,10,0.00,2,2,0,2,6051,12154,1526,8902,10,10,0,10,0.00,0.00,0.00,0.00
2016-12-17 11:00:00,2,9072,10,0.00,2,2,0,2,6970,10430,1212,9430,10,10,0,10,0.00,0.00,0.00,0.00
2016-12-17 11:10:00,2,7797,10,0.00,2,2,0,2,5267,10300,1672,8098,10,10,0,10,0.00,0.00,0.00,0.00
2016-12-17 11:20:00,2,6831,10,0.00,2,2,0,2,5778,7878,584,6758,10,10,0,10,0.00,0.00,0.00,0.00
2016-12-17 11:30:00,2,7420,10,0.00,2,2,0,2,5880,8900,970,7448,10,10,0,10,0.00,0.00,0.00,0.00
2016-12-17 11:40:00,2,9616,10,0.00,2,2,0,2,8394,11596,1088,9348,10,10,0,10,0.00,0.00,0.00,0.00
2016-12-17 11:50:00,2,6904,43,0.00,2,2,0,2,5883,8626,877,6654,10,78,33,40,0.00,0.00,0.00,0.00
2016-12-17 12:00:00,2,5854,78,0.01,2,2,0,2,3906,7601,1341,5866,78,78,0,78,0.00,0.05,0.02,0.00
2016-12-17 12:10:00,2,2692,78,0.07,2,2,0,2,1362,4109,869,2661,77,78,0,78,0.00,0.15,0.04,0.05
2016-12-17 12:20:00,2,1353,77,0.18,2,2,0,2,1128,1546,124,1359,77,77,0,77,0.10,0.30,0.06,0.17
2016-12-17 12:30:00,2,1311,73,0.30,2,2,0,2,891,1605,183,1328,71,77,3,71,0.15,0.65,0.14,0.25
2016-12-17 12:40:00,2,1466,73,0.31,2,2,0,2,1301,1758,139,1430,71,77,3,71,0.10,0.45,0.10,0.30
2016-12-17 12:50:00,2,1300,71,0.40,2,2,0,2,1138,1519,110,1311,71,71,0,71,0.25,0.55,0.10,0.40
2016-12-17 13:00:00,2,1443,71,0.52,2,2,0,2,1177,1729,159,1466,71,71,0,71,0.25,0.80,0.21,0.47
2016-12-17 13:10:00,2,1342,71,1.19,2,2,0,2,1139,1545,139,1348,71,71,0,71,0.65,1.75,0.29,1.23
2016-12-17 13:20:00,2,1557,71,0.95,2,2,0,2,1375,1850,134,1570,71,71,0,71,0.55,1.45,0.29,0.88
2016-12-17 13:30:00,2,1550,71,1.04,2,2,0,2,1226,1838,215,1546,71,71,0,71,0.60,1.55,0.27,1.10
2016-12-17 13:40:00,2,1256,71,1.62,2,2,0,2,984,1480,135,1252,71,71,0,71,1.15,2.55,0.48,1.38
2016-12-17 13:50:00,2,1326,71,1.90,2,2,0,2,1054,1453,109,1346,71,71,0,71,1.35,2.70,0.46,1.80
2016-12-17 14:00:00,2,1261,71,2.81,2,2,0,2,1049,1533,134,1248,71,71,0,71,1.65,4.45,0.82,2.55
2016-12-17 14:10:00,2,1066,71,3.92,2,2,0,2,761,1319,192,1097,71,71,0,71,2.40,6.10,1.18,3.45
2016-12-17 14:20:00,2,1419,71,2.30,2,2,0,2,1035,1726,203,1414,71,71,0,71,1.70,3.10,0.43,2.10
2016-12-17 14:30:00,2,1928,71,1.26,2,2,0,2,1343,2819,373,1864,71,71,0,71,0.50,2.05,0.48,1.38
2016-12-17 14:40:00,2,1888,71,1.37,2,2,0,2,1230,2331,328,1835,71,71,0,71,0.60,3.10,0.63,1.20
2016-12-17 14:50:00,2,1346,71,2.85,2,2,0,2,1002,1700,208,1392,71,71,0,71,2.05,3.85,0.63,2.62
2016-12-17 15:00:00,2,1502,71,2.24,2,2,0,2,1294,1752,145,1488,71,71,0,71,1.65,3.10,0.43,2.15
2016-12-17 15:10:00,2,1549,71,2.28,2,2,0,2,1313,1894,179,1554,71,71,0,71,1.60,3.40,0.48,2.20
2016-12-17 15:20:00,2,1362,71,2.29,2,2,0,2,1097,1624,167,1337,71,71,0,71,0.85,3.70,0.84,2.30
2016-12-17 15:30:00,2,1997,71,1.02,2,2,0,2,1698,2521,237,1912,71,71,0,71,0.40,1.75,0.45,0.97
2016-12-17 15:40:00,2,2315,71,0.73,2,2,0,2,1912,2802,271,2290,71,71,0,71,0.45,1.00,0.17,0.73
2016-12-17 15:50:00,2,3317,71,0.45,2,2,0,2,2734,4372,480,3227,71,71,0,71,0.15,0.85,0.24,0.40
2016-12-17 16:00:00,2,4913,71,0.18,2,2,0,2,4134,6047,641,4675,71,71,0,71,0.00,0.55,0.17,0.15
2016-12-17 16:10:00,2,3926,71,0.60,2,2,0,2,3189,4658,509,4018,71,71,0,71,0.15,1.70,0.45,0.45
2016-12-17 16:20:00,2,4305,71,0.29,2,2,0,2,3766,4826,333,4282,71,71,0,71,0.05,0.60,0.19,0.25
2016-12-17 16:30:00,2,4307,71,0.24,2,2,0,2,3723,5554,524,4194,71,71,0,71,0.00,0.40,0.15,0.28
2016-12-17 16:40:00,2,5340,72,0.04,2,2,0,2,3935,6243,630,5340,71,77,2,71,0.00,0.20,0.06,0.00
2016-12-17 16:50:00,2,7213,78,0.00,2,2,0,2,6124,7959,546,7316,77,78,0,78,0.00,0.00,0.00,0.00
2016-12-17 17:00:00,2,8223,37,0.00,2,2,0,2,7218,9109,575,8223,10,78,33,10,0.00,0.00,0.00,0.00
2016-12-17 17:10:00,2,9207,10,0.00,2,2,0,2,8210,10773,802,9108,10,10,0,10,0.00,0.00,0.00,0.00
2016-12-17 17:20:00,2,7120,63,0.01,2,2,0,2,6587,7574,265,7069,10,78,27,78,0.00,0.05,0.02,0.00
2016-12-17 17:30:00,2,6251,78,0.00,2,2,0,2,5624,7211,446,6270,78,78,0,78,0.00,0.00,0.00,0.00
2016-12-17 17:40:00,2,7391,78,0.00,2,2,0,2,6035,8201,594,7552,78,78,0,78,0.00,0.00,0.00,0.00
2016-12-17 17:50:00,2,9666,78,0.00,2,2,0,2,7612,11710,1437,9979,78,78,0,78,0.00,0.00,0.00,0.00
2016-12-17 18:00:00,2,12222,32,0.00,2,2,0,2,10488,13805,945,12227,0,78,38,5,0.00,0.00,0.00,0.00
2016-12-17 18:10:00,2,9589,0,0.00,2,2,0,2,7657,11531,1102,9422,0,0,0,0,0.00,0.00,0.00,0.00
2016-12-17 18:20:00,2,11486,0,0.00,2,2,0,2,10659,12613,593,11281,0,0,0,0,0.00,0.00,0.00,0.00
2016-12-17 18:30:00,2,10507,38,0.00,2,2,0,2,8685,12042,1093,10710,0,78,38,36,0.00,0.00,0.00,0.00
2016-12-17 18:40:00,2,11402,70,0.00,2,2,0,2,9661,12731,1102,11462,0,78,23,78,0.00,0.00,0.00,0.00
2016-12-17 18:50:00,2,10666,0,0.00,2,2,0,2,9229,11847,929,10798,0,0,0,0,0.00,0.00,0.00,0.00
2016-12-17 19:00:00,2,10808,0,0.00,2,2,0,2,9543,12020,720,10782,0,0,0,0,0.00,0.00,0.00,0.00
2016-12-17 19:10:00,2,13589,0,0.00,2,2,0,2,12600,15011,648,13495,0,0,0,0,0.00,0.00,0.00,0.00
2016-12-17 19:20:00,2,15137,0,0.00,2,2,0,2,13331,16605,1157,15324,0,0,0,0,0.00,0.00,0.00,0.00
2016-12-17 19:30:00,2,11040,0,0.00,2,2,0,2,8477,14654,2198,10298,0,0,0,0,0.00,0.00,0.00,0.00
2016-12-17 19:40:00,2,8155,61,0.00,2,2,0,2,7500,8825,474,8106,0,78,31,78,0.00,0.00,0.00,0.00
2016-12-17 19:50:00,2,8492,78,0.00,2,2,0,2,7899,9258,493,8346,78,78,0,78,0.00,0.00,0.00,0.00
2016-12-17 20:00:00,2,7202,78,0.00,2,2,0,2,6809,7683,253,7188,78,78,0,78,0.00,0.00,0.00,0.00
2016-12-17 20:10:00,2,6642,78,0.00,2,2,0,2,5858,7002,377,6846,78,78,0,78,0.00,0.00,0.00,0.00
2016-12-17 20:20:00,2,8821,78,0.00,2,2,0,2,7607,9858,669,8989,78,78,0,78,0.00,0.00,0.00,0.00
2016-12-17 20:30:00,2,8920,78,0.00,2,2,0,2,7913,9622,591,9025,78,78,0,78,0.00,0.00,0.00,0.00
2016-12-17 20:40:00,2,7119,78,0.00,2,2,0,2,5276,8884,1296,7111,78,78,0,78,0.00,0.00,0.00,0.00
2016-12-17 20:50:00,2,6082,78,0.02,2,2,0,2,5114,6695,499,6171,78,78,0,78,0.00,0.05,0.02,0.00
2016-12-17 21:00:00,2,4790,78,0.01,2,2,0,2,4475,5264,214,4764,78,78,0,78,0.00,0.05,0.02,0.00
2016-12-17 21:10:00,2,5656,78,0.01,2,2,0,2,4896,6652,480,5720,78,78,0,78,0.00,0.05,0.02,0.00
2016-12-17 21:20:00,2,5541,78,0.02,2,2,0,2,4934,6071,384,5530,78,78,0,78,0.00,0.05,0.02,0.00
2016-12-17 21:30:00,2,4489,78,0.04,2,2,0,2,3815,5240,415,4518,78,78,0,78,0.00,0.05,0.02,0.05
2016-12-17 21:40:00,2,3805,78,0.05,2,2,0,2,3293,4322,311,3725,78,78,0,78,0.05,0.05,0.00,0.05
2016-12-17 21:50:00,2,2875,78,0.07,2,2,0,2,2429,3442,308,2843,78,78,0,78,0.00,0.15,0.04,0.05
2016-12-17 22:00:00,2,3028,78,0.12,2,2,0,2,2663,3631,256,3010,78,78,0,78,0.05,0.20,0.04,0.10
2016-12-17 22:10:00,2,3869,78,0.06,2,2,0,2,3240,4287,350,3908,78,78,0,78,0.05,0.10,0.02,0.05
2016-12-17 22:20:00,2,3889,78,0.09,2,2,0,2,3341,4415,361,3924,77,78,0,78,0.05,0.15,0.03,0.10
2016-12-17 22:30:00,2,3331,78,0.13,2,2,0,2,2881,3691,245,3365,77,78,0,78,0.10,0.15,0.02,0.15
2016-12-17 22:40:00,2,3675,78,0.07,2,2,0,2,3163,4814,434,3544,78,78,0,78,0.00,0.10,0.03,0.05
2016-12-17 22:50:00,2,4776,78,0.02,2,2,0,2,4299,5454,339,4712,77,78,0,78,0.00,0.05,0.02,0.00
2016-12-17 23:00:00,2,5690,78,0.00,2,2,0,2,4939,6200,343,5734,78,78,0,78,0.00,0.00,0.00,0.00
2016-12-17 23:10:00,2,6789,78,0.00,2,2,0,2,6241,7547,440,6753,78,78,0,78,0.00,0.00,0.00,0.00
2016-12-17 23:20:00,2,8131,78,0.00,2,2,0,2,6247,10625,1330,7995,78,78,0,78,0.00,0.00,0.00,0.00
2016-12-17 23:30:00,2,11430,36,0.00,2,2,0,2,10115,12958,818,11214,0,78,34,10,0.00,0.00,0.00,0.00
2016-12-17 23:40:00,2,11489,0,0.00,2,2,0,2,10387,12610,758,11228,0,0,0,0,0.00,0.00,0.00,0.00
2016-12-17 23:50:00,2,11847,0,0.00,2,2,0,2,10783,13456,758,11826,0,0,0,0,0.00,0.00,0.00,0.00
